Time,TemperatureF,DewpointF,PressureIn,WindDirection,WindDirectionDegrees,WindSpeedMPH,WindSpeedGustMPH,Humidity,HourlyPrecipIn,Conditions,Clouds,dailyrainin,SolarRadiationWatts/m^2,SoftwareType,DateUTC
2013-02-11 00:02:00,21.9,8.2,30.33,West,264,0.0,0.0,55,0.00,OVC,OVC,0.00,0.0,WeatherDisplay:10.37,2013-02-11 05:02:00,
2013-02-11 00:07:00,21.7,8.0,30.33,West,264,0.0,0.0,55,0.00,OVC,OVC,0.00,0.0,WeatherDisplay:10.37,2013-02-11 05:07:00,
2013-02-11 00:12:00,21.5,8.2,30.32,West,264,0.0,0.0,56,0.00,OVC,OVC,0.00,0.0,WeatherDisplay:10.37,2013-02-11 05:12:00,
2013-02-11 00:17:00,21.4,8.1,30.33,West,264,0.0,0.0,56,0.00,OVC,OVC,0.00,0.0,WeatherDisplay:10.37,2013-02-11 05:17:00,
2013-02-11 00:22:00,21.5,8.2,30.33,West,264,0.0,0.0,56,0.00,OVC,OVC,0.00,0.0,WeatherDisplay:10.37,2013-02-11 05:22:00,
2013-02-11 00:27:00,21.6,8.3,30.33,West,264,0.0,0.0,56,0.00,OVC,OVC,0.00,0.0,WeatherDisplay:10.37,2013-02-11 05:27:00,
2013-02-11 00:32:00,21.9,9.0,30.33,West,264,0.0,0.0,57,0.00,OVC,OVC,0.00,0.0,WeatherDisplay:10.37,2013-02-11 05:32:00,
2013-02-11 00:37:00,22.1,8.8,30.33,West,264,0.0,0.0,56,0.00,OVC,OVC,0.00,0.0,WeatherDisplay:10.37,2013-02-11 05:37:00,
2013-02-11 00:42:00,22.4,9.4,30.32,West,264,0.0,0.0,57,0.00,OVC,OVC,0.00,0.0,WeatherDisplay:10.37,2013-02-11 05:42:00,
2013-02-11 00:47:00,22.5,9.9,30.32,West,264,0.0,0.0,58,0.00,OVC,OVC,0.00,0.0,WeatherDisplay:10.37,2013-02-11 05:47:00,
2013-02-11 00:52:00,22.7,10.2,30.32,West,264,0.0,0.0,58,0.00,OVC,OVC,0.00,0.0,WeatherDisplay:10.37,2013-02-11 05:52:00,
2013-02-11 00:57:00,22.9,10.7,30.31,West,264,0.0,0.0,59,0.00,OVC,OVC,0.00,0.0,WeatherDisplay:10.37,2013-02-11 05:57:00,
2013-02-11 01:02:00,23.1,10.5,30.31,West,264,0.0,0.0,58,0.00,OVC,OVC,0.00,0.0,WeatherDisplay:10.37,2013-02-11 06:02:00,
2013-02-11 01:07:00,23.2,10.6,30.31,West,264,0.0,0.0,58,0.00,OVC,OVC,0.00,0.0,WeatherDisplay:10.37,2013-02-11 06:07:00,
2013-02-11 01:12:00,23.3,10.7,30.30,West,264,0.0,0.0,58,0.00,OVC,OVC,0.00,0.0,WeatherDisplay:10.37,2013-02-11 06:12:00,
2013-02-11 01:17:00,23.3,9.9,30.30,West,264,0.0,0.0,56,0.00,OVC,OVC,0.00,0.0,WeatherDisplay:10.37,2013-02-11 06:17:00,
2013-02-11 01:27:00,23.4,10.0,30.31,West,264,0.0,0.0,56,0.00,OVC,OVC,0.00,0.0,WeatherDisplay:10.37,2013-02-11 06:27:00,
2013-02-11 01:32:00,23.4,9.6,30.30,West,264,0.0,0.0,55,0.00,OVC,OVC,0.00,0.0,WeatherDisplay:10.37,2013-02-11 06:32:00,
2013-02-11 01:37:00,23.5,9.7,30.29,West,264,0.0,0.0,55,0.00,OVC,OVC,0.00,0.0,WeatherDisplay:10.37,2013-02-11 06:37:00,
2013-02-11 01:42:00,23.6,10.1,30.29,West,264,0.0,0.0,56,0.00,OVC,OVC,0.00,0.0,WeatherDisplay:10.37,2013-02-11 06:42:00,
2013-02-11 01:47:00,23.6,10.6,30.29,West,264,0.0,0.0,57,0.00,OVC,OVC,0.00,0.0,WeatherDisplay:10.37,2013-02-11 06:47:00,
2013-02-11 01:52:00,23.6,10.6,30.29,West,264,0.0,0.0,57,0.00,OVC,OVC,0.00,0.0,WeatherDisplay:10.37,2013-02-11 06:52:00,
2013-02-11 01:57:00,23.6,10.2,30.29,West,264,0.0,0.0,56,0.00,OVC,OVC,0.00,0.0,WeatherDisplay:10.37,2013-02-11 06:57:00,
2013-02-11 02:02:00,23.5,10.5,30.28,West,264,0.0,0.0,57,0.00,OVC,OVC,0.00,0.0,WeatherDisplay:10.37,2013-02-11 07:02:00,
2013-02-11 02:12:00,23.4,10.0,30.28,West,264,0.0,0.0,56,0.00,OVC,OVC,0.00,0.0,WeatherDisplay:10.37,2013-02-11 07:12:00,
2013-02-11 02:17:00,23.4,10.0,30.28,West,264,0.0,0.0,56,0.00,OVC,OVC,0.00,0.0,WeatherDisplay:10.37,2013-02-11 07:17:00,
2013-02-11 02:22:00,23.4,10.4,30.28,West,264,0.0,0.0,57,0.00,OVC,OVC,0.00,0.0,WeatherDisplay:10.37,2013-02-11 07:22:00,
2013-02-11 02:27:00,23.3,10.3,30.27,West,264,0.0,0.0,57,0.00,OVC,OVC,0.00,0.0,WeatherDisplay:10.37,2013-02-11 07:27:00,
2013-02-11 02:32:00,23.3,10.3,30.27,West,263,0.0,0.0,57,0.00,OVC,OVC,0.00,0.0,WeatherDisplay:10.37,2013-02-11 07:32:00,
2013-02-11 02:37:00,23.3,10.7,30.27,West,261,0.0,0.0,58,0.00,OVC,OVC,0.00,0.0,WeatherDisplay:10.37,2013-02-11 07:37:00,
2013-02-11 02:42:00,23.3,10.3,30.27,West,260,0.0,0.0,57,0.00,OVC,OVC,0.00,0.0,WeatherDisplay:10.37,2013-02-11 07:42:00,
2013-02-11 02:47:00,23.3,10.3,30.27,West,260,0.0,0.0,57,0.00,OVC,OVC,0.00,0.0,WeatherDisplay:10.37,2013-02-11 07:47:00,
2013-02-11 02:52:00,23.2,10.6,30.27,West,260,0.0,0.0,58,0.00,OVC,OVC,0.00,0.0,WeatherDisplay:10.37,2013-02-11 07:52:00,
2013-02-11 02:57:00,23.2,10.2,30.27,West,260,0.0,0.0,57,0.00,OVC,OVC,0.00,0.0,WeatherDisplay:10.37,2013-02-11 07:57:00,
2013-02-11 03:02:00,23.2,9.8,30.27,West,260,0.0,0.0,56,0.00,OVC,OVC,0.00,0.0,WeatherDisplay:10.37,2013-02-11 08:02:00,
2013-02-11 03:07:00,23.2,9.8,30.27,West,260,0.0,0.0,56,0.00,OVC,OVC,0.00,0.0,WeatherDisplay:10.37,2013-02-11 08:07:00,
2013-02-11 03:12:00,23.3,9.9,30.26,West,260,0.0,0.0,56,0.00,OVC,OVC,0.00,0.0,WeatherDisplay:10.37,2013-02-11 08:12:00,
2013-02-11 03:17:00,23.3,10.3,30.26,West,260,0.0,0.0,57,0.00,OVC,OVC,0.00,0.0,WeatherDisplay:10.37,2013-02-11 08:17:00,
2013-02-11 03:22:00,23.4,10.4,30.26,West,260,0.0,0.0,57,0.00,OVC,OVC,0.00,0.0,WeatherDisplay:10.37,2013-02-11 08:22:00,
2013-02-11 03:27:00,23.5,10.5,30.26,West,260,0.0,0.0,57,0.00,OVC,OVC,0.00,0.0,WeatherDisplay:10.37,2013-02-11 08:27:00,
2013-02-11 03:32:00,23.5,10.9,30.25,West,260,0.0,0.0,58,0.00,OVC,OVC,0.00,0.0,WeatherDisplay:10.37,2013-02-11 08:32:00,
2013-02-11 03:37:00,23.6,11.0,30.25,West,260,0.0,0.0,58,0.00,OVC,OVC,0.00,0.0,WeatherDisplay:10.37,2013-02-11 08:37:00,
2013-02-11 03:42:00,23.7,11.4,30.25,West,260,0.0,0.0,59,0.00,OVC,OVC,0.00,0.0,WeatherDisplay:10.37,2013-02-11 08:42:00,
2013-02-11 03:47:00,23.8,11.9,30.25,West,260,0.0,0.0,60,0.00,OVC,OVC,0.00,0.0,WeatherDisplay:10.37,2013-02-11 08:47:00,
2013-02-11 03:52:00,23.8,11.9,30.25,West,260,0.0,0.0,60,0.00,OVC,OVC,0.00,0.0,WeatherDisplay:10.37,2013-02-11 08:52:00,
2013-02-11 03:57:00,23.9,11.3,30.25,West,260,0.0,0.0,58,0.00,OVC,OVC,0.00,0.0,WeatherDisplay:10.37,2013-02-11 08:57:00,
2013-02-11 04:02:00,23.9,11.3,30.25,West,260,0.0,0.0,58,0.00,OVC,OVC,0.00,0.0,WeatherDisplay:10.37,2013-02-11 09:02:00,
2013-02-11 04:07:00,23.9,10.9,30.25,West,260,0.0,0.0,57,0.00,OVC,OVC,0.00,0.0,WeatherDisplay:10.37,2013-02-11 09:07:00,
2013-02-11 04:12:00,24.0,11.0,30.24,West,260,0.0,0.0,57,0.00,OVC,OVC,0.00,0.0,WeatherDisplay:10.37,2013-02-11 09:12:00,
2013-02-11 04:17:00,24.0,11.3,30.24,West,260,0.0,0.0,58,0.00,OVC,OVC,0.00,0.0,WeatherDisplay:10.37,2013-02-11 09:17:00,
2013-02-11 04:22:00,24.0,11.3,30.24,West,260,0.0,0.0,58,0.00,OVC,OVC,0.00,0.0,WeatherDisplay:10.37,2013-02-11 09:22:00,
2013-02-11 04:27:00,24.0,10.9,30.24,West,260,0.0,0.0,57,0.00,OVC,OVC,0.00,0.0,WeatherDisplay:10.37,2013-02-11 09:27:00,
2013-02-11 04:32:00,23.9,11.2,30.23,West,260,0.0,0.0,58,0.00,OVC,OVC,0.00,0.0,WeatherDisplay:10.37,2013-02-11 09:32:00,
2013-02-11 04:37:00,23.8,11.9,30.23,West,260,0.0,1.0,60,0.00,OVC,OVC,0.00,0.0,WeatherDisplay:10.37,2013-02-11 09:37:00,
2013-02-11 04:42:00,23.5,12.0,30.23,West,260,0.0,0.0,61,0.00,OVC,OVC,0.00,0.0,WeatherDisplay:10.37,2013-02-11 09:42:00,
2013-02-11 04:47:00,23.4,12.3,30.23,West,260,0.0,0.0,62,0.00,OVC,OVC,0.00,0.0,WeatherDisplay:10.37,2013-02-11 09:47:00,
2013-02-11 04:52:00,23.3,12.2,30.23,West,260,0.0,1.0,62,0.00,OVC,OVC,0.00,0.0,WeatherDisplay:10.37,2013-02-11 09:52:00,
2013-02-11 04:57:00,23.2,12.1,30.22,West,260,0.0,1.0,62,0.00,OVC,OVC,0.00,0.0,WeatherDisplay:10.37,2013-02-11 09:57:00,
2013-02-11 05:02:00,23.1,11.3,30.22,West,260,0.0,0.0,60,0.00,OVC,OVC,0.00,0.0,WeatherDisplay:10.37,2013-02-11 10:02:00,
2013-02-11 05:07:00,23.0,10.8,30.22,West,260,0.0,0.0,59,0.00,OVC,OVC,0.00,0.0,WeatherDisplay:10.37,2013-02-11 10:07:00,
2013-02-11 05:12:00,22.9,11.1,30.22,West,260,1.0,3.0,60,0.00,OVC,OVC,0.00,0.0,WeatherDisplay:10.37,2013-02-11 10:12:00,
2013-02-11 05:17:00,22.9,11.1,30.22,West,260,0.0,0.0,60,0.00,OVC,OVC,0.00,0.0,WeatherDisplay:10.37,2013-02-11 10:17:00,
2013-02-11 05:22:00,22.9,11.1,30.22,West,260,0.0,0.0,60,0.00,OVC,OVC,0.00,0.0,WeatherDisplay:10.37,2013-02-11 10:22:00,
2013-02-11 05:32:00,22.8,11.3,30.22,West,260,0.0,1.0,61,0.00,OVC,OVC,0.00,0.0,WeatherDisplay:10.37,2013-02-11 10:32:00,
2013-02-11 05:37:00,22.8,11.3,30.22,West,260,0.0,0.0,61,0.00,OVC,OVC,0.00,0.0,WeatherDisplay:10.37,2013-02-11 10:37:00,
2013-02-11 05:42:00,22.9,11.4,30.22,West,260,0.0,0.0,61,0.00,OVC,OVC,0.00,0.0,WeatherDisplay:10.37,2013-02-11 10:42:00,
2013-02-11 05:47:00,22.8,11.7,30.23,West,260,0.0,0.0,62,0.00,OVC,OVC,0.00,0.0,WeatherDisplay:10.37,2013-02-11 10:47:00,
2013-02-11 05:52:00,22.8,11.7,30.22,West,260,0.0,0.0,62,0.00,OVC,OVC,0.00,0.0,WeatherDisplay:10.37,2013-02-11 10:52:00,
2013-02-11 05:57:00,22.8,12.1,30.22,West,260,0.0,0.0,63,0.00,OVC,OVC,0.00,0.0,WeatherDisplay:10.37,2013-02-11 10:57:00,
2013-02-11 06:02:00,22.8,11.7,30.22,West,260,0.0,0.0,62,0.00,CLR,CLR,0.00,0.0,WeatherDisplay:10.37,2013-02-11 11:02:00,
2013-02-11 06:07:00,22.8,12.1,30.21,West,260,0.0,0.0,63,0.00,CLR,CLR,0.00,0.0,WeatherDisplay:10.37,2013-02-11 11:07:00,
2013-02-11 06:12:00,22.9,12.5,30.21,West,260,0.0,0.0,64,0.00,CLR,CLR,0.00,0.0,WeatherDisplay:10.37,2013-02-11 11:12:00,
2013-02-11 06:17:00,23.0,12.3,30.20,West,260,0.0,1.0,63,0.00,CLR,CLR,0.00,0.0,WeatherDisplay:10.37,2013-02-11 11:17:00,
2013-02-11 06:22:00,23.0,12.3,30.20,West,260,0.0,0.0,63,0.00,CLR,CLR,0.00,0.0,WeatherDisplay:10.37,2013-02-11 11:22:00,
2013-02-11 06:27:00,23.1,12.4,30.20,West,260,0.0,0.0,63,0.00,CLR,CLR,0.00,0.0,WeatherDisplay:10.37,2013-02-11 11:27:00,
2013-02-11 06:32:00,23.1,12.7,30.21,West,260,0.0,0.0,64,0.00,CLR,CLR,0.00,0.0,WeatherDisplay:10.37,2013-02-11 11:32:00,
2013-02-11 06:37:00,23.2,12.8,30.21,West,260,0.0,0.0,64,0.00,CLR,CLR,0.00,0.0,WeatherDisplay:10.37,2013-02-11 11:37:00,
2013-02-11 06:42:00,23.2,12.8,30.21,West,260,0.0,0.0,64,0.00,CLR,CLR,0.00,0.0,WeatherDisplay:10.37,2013-02-11 11:42:00,
2013-02-11 06:47:00,23.3,12.9,30.20,West,260,0.0,0.0,64,0.00,CLR,CLR,0.00,0.0,WeatherDisplay:10.37,2013-02-11 11:47:00,
2013-02-11 06:52:00,23.3,13.3,30.20,West,260,0.0,0.0,65,0.00,CLR,CLR,0.00,0.0,WeatherDisplay:10.37,2013-02-11 11:52:00,
2013-02-11 06:57:00,23.4,12.6,30.20,West,260,0.0,0.0,63,0.00,CLR,CLR,0.00,0.0,WeatherDisplay:10.37,2013-02-11 11:57:00,
2013-02-11 07:02:00,23.4,12.6,30.20,West,260,0.0,0.0,63,0.00,CLR,CLR,0.00,0.0,WeatherDisplay:10.37,2013-02-11 12:02:00,
2013-02-11 07:12:00,23.8,14.1,30.18,West,260,1.0,2.0,66,0.00,CLR,CLR,0.00,7.0,WeatherDisplay:10.37,2013-02-11 12:12:00,
2013-02-11 07:17:00,23.8,14.1,30.19,West,260,0.0,0.0,66,0.00,CLR,CLR,0.00,0.0,WeatherDisplay:10.37,2013-02-11 12:17:00,
2013-02-11 07:22:00,23.8,14.1,30.18,West,260,0.0,0.0,66,0.00,CLR,CLR,0.00,0.0,WeatherDisplay:10.37,2013-02-11 12:22:00,
2013-02-11 07:27:00,23.8,13.8,30.18,West,260,0.0,1.0,65,0.00,CLR,CLR,0.00,0.0,WeatherDisplay:10.37,2013-02-11 12:27:00,
2013-02-11 07:32:00,23.9,14.2,30.17,West,260,0.0,1.0,66,0.00,CLR,CLR,0.00,0.0,WeatherDisplay:10.37,2013-02-11 12:32:00,
2013-02-11 07:37:00,24.0,13.6,30.17,West,260,0.0,0.0,64,0.00,CLR,CLR,0.00,0.0,WeatherDisplay:10.37,2013-02-11 12:37:00,
2013-02-11 07:42:00,24.1,14.0,30.17,West,260,0.0,1.0,65,0.00,CLR,CLR,0.00,0.0,WeatherDisplay:10.37,2013-02-11 12:42:00,
2013-02-11 07:47:00,24.2,14.1,30.17,West,260,0.0,0.0,65,0.00,CLR,CLR,0.00,0.0,WeatherDisplay:10.37,2013-02-11 12:47:00,
2013-02-11 07:52:00,24.3,14.2,30.17,West,260,0.0,0.0,65,0.00,CLR,CLR,0.00,0.0,WeatherDisplay:10.37,2013-02-11 12:52:00,
2013-02-11 07:57:00,24.4,14.3,30.17,West,260,0.0,0.0,65,0.00,CLR,CLR,0.00,0.0,WeatherDisplay:10.37,2013-02-11 12:57:00,
2013-02-11 08:02:00,24.5,14.4,30.17,West,260,0.0,0.0,65,0.00,CLR,CLR,0.00,0.0,WeatherDisplay:10.37,2013-02-11 13:02:00,
2013-02-11 08:07:00,24.6,14.5,30.17,West,260,0.0,1.0,65,0.00,CLR,CLR,0.00,0.0,WeatherDisplay:10.37,2013-02-11 13:07:00,
2013-02-11 08:12:00,24.8,15.1,30.16,West,260,0.0,0.0,66,0.00,CLR,CLR,0.00,0.0,WeatherDisplay:10.37,2013-02-11 13:12:00,
2013-02-11 08:17:00,25.0,15.6,30.16,West,260,0.0,0.0,67,0.00,CLR,CLR,0.00,0.0,WeatherDisplay:10.37,2013-02-11 13:17:00,
2013-02-11 08:22:00,25.1,15.3,30.15,West,259,0.0,3.0,66,0.00,CLR,CLR,0.00,0.0,WeatherDisplay:10.37,2013-02-11 13:22:00,
2013-02-11 08:27:00,25.2,17.1,30.15,WSW,257,0.0,1.0,71,0.00,CLR,CLR,0.00,39.0,WeatherDisplay:10.37,2013-02-11 13:27:00,
2013-02-11 08:32:00,25.3,16.2,30.14,SSE,166,2.0,3.0,68,0.00,CLR,CLR,0.00,0.0,WeatherDisplay:10.37,2013-02-11 13:32:00,
2013-02-11 08:37:00,25.4,16.3,30.13,ESE,108,2.0,4.0,68,0.00,CLR,CLR,0.00,0.0,WeatherDisplay:10.37,2013-02-11 13:37:00,
2013-02-11 08:42:00,25.6,16.8,30.13,ESE,104,2.0,4.0,69,0.00,CLR,CLR,0.00,0.0,WeatherDisplay:10.37,2013-02-11 13:42:00,
2013-02-11 08:47:00,25.7,17.6,30.12,East,101,2.0,5.0,71,0.00,CLR,CLR,0.00,0.0,WeatherDisplay:10.37,2013-02-11 13:47:00,
2013-02-11 08:52:00,25.8,18.0,30.12,East,96,2.0,4.0,72,0.00,CLR,CLR,0.00,0.0,WeatherDisplay:10.37,2013-02-11 13:52:00,
2013-02-11 08:57:00,25.9,18.7,30.11,East,93,0.0,4.0,74,0.01,RA,RA,0.01,0.0,WeatherDisplay:10.37,2013-02-11 13:57:00,
2013-02-11 09:02:00,26.1,19.2,30.11,East,93,0.0,0.0,75,0.00,RA,RA,0.01,0.0,WeatherDisplay:10.37,2013-02-11 14:02:00,
2013-02-11 09:07:00,26.2,20.0,30.11,East,96,0.0,1.0,77,0.00,,,0.01,0.0,WeatherDisplay:10.37,2013-02-11 14:07:00,
2013-02-11 09:12:00,26.3,20.3,30.10,East,96,1.0,4.0,78,0.00,,,0.01,0.0,WeatherDisplay:10.37,2013-02-11 14:12:00,
2013-02-11 09:17:00,26.4,20.8,30.10,East,100,2.0,5.0,79,0.00,,,0.01,0.0,WeatherDisplay:10.37,2013-02-11 14:17:00,
2013-02-11 09:22:00,26.6,21.3,30.09,East,100,0.0,4.0,80,0.00,,,0.01,0.0,WeatherDisplay:10.37,2013-02-11 14:22:00,
2013-02-11 09:27:00,26.7,21.4,30.09,East,97,0.0,1.0,80,0.00,,,0.01,0.0,WeatherDisplay:10.37,2013-02-11 14:27:00,
2013-02-11 09:32:00,26.9,21.8,30.09,East,97,0.0,1.0,81,0.00,,,0.01,0.0,WeatherDisplay:10.37,2013-02-11 14:32:00,
2013-02-11 09:37:00,27.0,21.9,30.08,East,97,0.0,0.0,81,0.00,,,0.01,72.0,WeatherDisplay:10.37,2013-02-11 14:37:00,
2013-02-11 09:42:00,27.2,22.4,30.08,East,97,0.0,3.0,82,0.00,,,0.01,81.0,WeatherDisplay:10.37,2013-02-11 14:42:00,
2013-02-11 09:47:00,27.4,22.6,30.07,East,97,0.0,3.0,82,0.01,RA,RA,0.02,76.0,WeatherDisplay:10.37,2013-02-11 14:47:00,
2013-02-11 09:52:00,27.6,23.1,30.07,ESE,105,0.0,1.0,83,0.00,RA,RA,0.02,0.0,WeatherDisplay:10.37,2013-02-11 14:52:00,
2013-02-11 10:02:00,28.0,23.5,30.07,ESE,112,0.0,0.0,83,0.00,,,0.02,35.0,WeatherDisplay:10.37,2013-02-11 15:02:00,
2013-02-11 10:07:00,28.1,23.6,30.07,ESE,112,0.0,0.0,83,0.00,,,0.02,32.0,WeatherDisplay:10.37,2013-02-11 15:07:00,
2013-02-11 10:12:00,28.2,24.0,30.06,ESE,112,0.0,0.0,84,0.00,,,0.02,0.0,WeatherDisplay:10.37,2013-02-11 15:12:00,
2013-02-11 10:17:00,28.3,24.1,30.06,ESE,112,0.0,0.0,84,0.00,,,0.02,58.0,WeatherDisplay:10.37,2013-02-11 15:17:00,
2013-02-11 10:22:00,28.5,24.3,30.05,ESE,112,0.0,0.0,84,0.00,,,0.02,47.0,WeatherDisplay:10.37,2013-02-11 15:22:00,
2013-02-11 10:27:00,28.7,24.5,30.05,ESE,111,0.0,0.0,84,0.01,RA,RA,0.03,40.0,WeatherDisplay:10.37,2013-02-11 15:27:00,
2013-02-11 10:32:00,28.9,25.0,30.05,ESE,112,0.0,0.0,85,0.00,RA,RA,0.03,26.0,WeatherDisplay:10.37,2013-02-11 15:32:00,
2013-02-11 10:37:00,29.1,25.2,30.04,ESE,112,0.0,0.0,85,0.01,RA,RA,0.04,23.0,WeatherDisplay:10.37,2013-02-11 15:37:00,
2013-02-11 10:42:00,29.3,25.4,30.04,ESE,112,0.0,0.0,85,0.01,RA,RA,0.05,44.0,WeatherDisplay:10.37,2013-02-11 15:42:00,
2013-02-11 10:47:00,29.5,25.8,30.03,ESE,112,0.0,0.0,86,0.01,RA,RA,0.06,0.0,WeatherDisplay:10.37,2013-02-11 15:47:00,
2013-02-11 10:52:00,29.7,26.0,30.02,ESE,112,0.0,0.0,86,0.00,RA,RA,0.06,0.0,WeatherDisplay:10.37,2013-02-11 15:52:00,
2013-02-11 10:57:00,30.0,26.6,30.02,ESE,112,0.0,0.0,87,0.01,RA,RA,0.07,0.0,WeatherDisplay:10.37,2013-02-11 15:57:00,
2013-02-11 11:02:00,30.3,26.9,30.01,ESE,111,0.0,0.0,87,0.00,RA,RA,0.07,0.0,WeatherDisplay:10.37,2013-02-11 16:02:00,
2013-02-11 11:07:00,30.5,27.1,30.01,ESE,111,0.0,0.0,87,0.00,,,0.07,62.0,WeatherDisplay:10.37,2013-02-11 16:07:00,
2013-02-11 11:12:00,30.7,27.3,30.00,ESE,112,0.0,0.0,87,0.01,RA,RA,0.08,0.0,WeatherDisplay:10.37,2013-02-11 16:12:00,
2013-02-11 11:17:00,30.8,27.7,30.00,ESE,112,0.0,0.0,88,0.00,RA,RA,0.08,0.0,WeatherDisplay:10.37,2013-02-11 16:17:00,
2013-02-11 11:22:00,30.9,27.8,30.00,ESE,112,0.0,0.0,88,0.00,,,0.08,0.0,WeatherDisplay:10.37,2013-02-11 16:22:00,
2013-02-11 11:27:00,31.1,28.0,29.99,ESE,112,0.0,0.0,88,0.00,,,0.08,0.0,WeatherDisplay:10.37,2013-02-11 16:27:00,
2013-02-11 11:37:00,31.3,27.9,29.97,ESE,112,0.0,0.0,87,0.00,,,0.08,67.0,WeatherDisplay:10.37,2013-02-11 16:37:00,
2013-02-11 11:42:00,31.4,28.3,29.96,ESE,112,0.0,0.0,88,0.00,,,0.08,98.0,WeatherDisplay:10.37,2013-02-11 16:42:00,
2013-02-11 11:47:00,31.6,28.4,29.95,ESE,112,0.0,1.0,88,0.01,RA,RA,0.09,0.0,WeatherDisplay:10.37,2013-02-11 16:47:00,
2013-02-11 11:52:00,31.7,28.5,29.95,ESE,112,0.0,0.0,88,0.00,RA,RA,0.09,70.0,WeatherDisplay:10.37,2013-02-11 16:52:00,
2013-02-11 11:57:00,31.7,28.6,29.94,ESE,112,0.0,0.0,88,0.00,,,0.09,70.0,WeatherDisplay:10.37,2013-02-11 16:57:00,
2013-02-11 12:02:00,31.8,28.7,29.93,ESE,112,0.0,0.0,88,0.00,,,0.09,0.0,WeatherDisplay:10.37,2013-02-11 17:02:00,
2013-02-11 12:12:00,32.0,29.7,29.92,ESE,112,0.0,0.0,91,0.00,RA,RA,0.10,105.0,WeatherDisplay:10.37,2013-02-11 17:12:00,
2013-02-11 12:17:00,32.1,29.2,29.92,ESE,112,0.0,0.0,89,0.01,RA,RA,0.11,0.0,WeatherDisplay:10.37,2013-02-11 17:17:00,
2013-02-11 12:27:00,32.2,29.3,29.91,ESE,112,0.0,0.0,89,0.01,RA,RA,0.13,0.0,WeatherDisplay:10.37,2013-02-11 17:27:00,
2013-02-11 12:32:00,32.2,29.3,29.90,ESE,112,0.0,0.0,89,0.00,RA,RA,0.13,65.0,WeatherDisplay:10.37,2013-02-11 17:32:00,
2013-02-11 12:37:00,32.2,29.3,29.90,ESE,112,0.0,0.0,89,0.01,RA,RA,0.14,49.0,WeatherDisplay:10.37,2013-02-11 17:37:00,
2013-02-11 12:42:00,32.3,29.7,29.90,ESE,112,0.0,0.0,90,0.00,RA,RA,0.14,44.0,WeatherDisplay:10.37,2013-02-11 17:42:00,
2013-02-11 12:47:00,32.3,29.7,29.89,ESE,112,0.0,0.0,90,0.01,RA,RA,0.15,0.0,WeatherDisplay:10.37,2013-02-11 17:47:00,
2013-02-11 12:57:00,32.5,29.9,29.88,ESE,112,0.0,0.0,90,0.01,RA,RA,0.16,70.0,WeatherDisplay:10.37,2013-02-11 17:57:00,
2013-02-11 13:02:00,32.6,30.0,29.86,ESE,112,0.0,0.0,90,0.00,RA,RA,0.16,79.0,WeatherDisplay:10.37,2013-02-11 18:02:00,
2013-02-11 13:07:00,32.7,30.1,29.86,ESE,112,0.0,0.0,90,0.00,,,0.16,67.0,WeatherDisplay:10.37,2013-02-11 18:07:00,
2013-02-11 13:12:00,32.8,30.2,29.85,ESE,112,0.0,0.0,90,0.00,,,0.16,97.0,WeatherDisplay:10.37,2013-02-11 18:12:00,
2013-02-11 13:17:00,32.9,30.3,29.84,ESE,112,0.0,0.0,90,0.00,,,0.16,0.0,WeatherDisplay:10.37,2013-02-11 18:17:00,
2013-02-11 13:22:00,32.9,30.3,29.83,ESE,112,0.0,1.0,90,0.00,,,0.16,76.0,WeatherDisplay:10.37,2013-02-11 18:22:00,
2013-02-11 13:27:00,33.0,30.4,29.82,ESE,112,0.0,0.0,90,0.00,,,0.16,0.0,WeatherDisplay:10.37,2013-02-11 18:27:00,
2013-02-11 13:32:00,33.0,30.7,29.83,ESE,112,0.0,0.0,91,0.00,,,0.16,51.0,WeatherDisplay:10.37,2013-02-11 18:32:00,
2013-02-11 13:37:00,33.0,30.7,29.83,ESE,112,0.0,0.0,91,0.00,,,0.16,49.0,WeatherDisplay:10.37,2013-02-11 18:37:00,
2013-02-11 13:42:00,33.1,30.8,29.83,ESE,112,0.0,0.0,91,0.00,,,0.16,49.0,WeatherDisplay:10.37,2013-02-11 18:42:00,
2013-02-11 13:47:00,33.1,30.8,29.82,South,183,0.0,3.0,91,0.00,,,0.16,47.0,WeatherDisplay:10.37,2013-02-11 18:47:00,
2013-02-11 13:52:00,33.2,30.8,29.82,WSW,255,0.0,0.0,91,0.00,,,0.16,0.0,WeatherDisplay:10.37,2013-02-11 18:52:00,
2013-02-11 13:57:00,33.2,30.9,29.81,WSW,255,0.0,0.0,91,0.01,RA,RA,0.17,83.0,WeatherDisplay:10.37,2013-02-11 18:57:00,
2013-02-11 14:02:00,33.2,30.9,29.81,WSW,255,0.0,0.0,91,0.00,RA,RA,0.17,0.0,WeatherDisplay:10.37,2013-02-11 19:02:00,
2013-02-11 14:07:00,33.3,31.0,29.80,WSW,255,0.0,0.0,91,0.00,,,0.17,62.0,WeatherDisplay:10.37,2013-02-11 19:07:00,
2013-02-11 14:12:00,33.3,31.0,29.80,WSW,255,0.0,0.0,91,0.00,,,0.17,47.0,WeatherDisplay:10.37,2013-02-11 19:12:00,
2013-02-11 14:17:00,33.4,31.1,29.80,WSW,255,0.0,0.0,91,0.00,,,0.17,0.0,WeatherDisplay:10.37,2013-02-11 19:17:00,
2013-02-11 14:27:00,33.4,31.0,29.80,WSW,255,0.0,0.0,91,0.00,,,0.17,30.0,WeatherDisplay:10.37,2013-02-11 19:27:00,
2013-02-11 14:32:00,33.3,31.0,29.79,WSW,255,0.0,0.0,91,0.00,,,0.17,39.0,WeatherDisplay:10.37,2013-02-11 19:32:00,
2013-02-11 14:37:00,33.3,31.0,29.78,WSW,255,0.0,0.0,91,0.00,,,0.17,0.0,WeatherDisplay:10.37,2013-02-11 19:37:00,
2013-02-11 14:42:00,33.3,31.0,29.79,WSW,255,0.0,1.0,91,0.00,,,0.17,0.0,WeatherDisplay:10.37,2013-02-11 19:42:00,
2013-02-11 14:47:00,33.3,31.0,29.79,WSW,255,0.0,1.0,91,0.00,,,0.17,19.0,WeatherDisplay:10.37,2013-02-11 19:47:00,
2013-02-11 14:52:00,33.2,30.9,29.79,WSW,255,0.0,0.0,91,0.00,,,0.17,16.0,WeatherDisplay:10.37,2013-02-11 19:52:00,
2013-02-11 14:57:00,33.2,30.9,29.79,WSW,255,0.0,1.0,91,0.00,CLR,CLR,0.17,0.0,WeatherDisplay:10.37,2013-02-11 19:57:00,
2013-02-11 15:02:00,33.2,30.8,29.79,WSW,255,0.0,0.0,91,0.00,CLR,CLR,0.17,14.0,WeatherDisplay:10.37,2013-02-11 20:02:00,
2013-02-11 15:07:00,33.1,30.8,29.78,WSW,255,0.0,0.0,91,0.00,CLR,CLR,0.17,14.0,WeatherDisplay:10.37,2013-02-11 20:07:00,
2013-02-11 15:12:00,33.0,30.7,29.77,WSW,255,0.0,0.0,91,0.00,CLR,CLR,0.17,0.0,WeatherDisplay:10.37,2013-02-11 20:12:00,
2013-02-11 15:17:00,33.0,30.7,29.77,WSW,255,0.0,0.0,91,0.00,CLR,CLR,0.17,0.0,WeatherDisplay:10.37,2013-02-11 20:17:00,
2013-02-11 15:22:00,33.0,30.7,29.77,WSW,255,0.0,0.0,91,0.00,CLR,CLR,0.17,18.0,WeatherDisplay:10.37,2013-02-11 20:22:00,
2013-02-11 15:27:00,33.0,30.7,29.77,WSW,255,0.0,0.0,91,0.00,CLR,CLR,0.17,14.0,WeatherDisplay:10.37,2013-02-11 20:27:00,
2013-02-11 15:32:00,33.0,30.7,29.77,WSW,255,0.0,0.0,91,0.01,RA,RA,0.18,16.0,WeatherDisplay:10.37,2013-02-11 20:32:00,
2013-02-11 15:37:00,32.9,30.6,29.76,WSW,255,0.0,0.0,91,0.01,RA,RA,0.19,12.0,WeatherDisplay:10.37,2013-02-11 20:37:00,
2013-02-11 15:42:00,32.9,30.6,29.76,WSW,255,0.0,0.0,91,0.02,RA,RA,0.21,32.0,WeatherDisplay:10.37,2013-02-11 20:42:00,
2013-02-11 15:47:00,32.9,30.6,29.75,WSW,255,0.0,0.0,91,0.01,RA,RA,0.22,46.0,WeatherDisplay:10.37,2013-02-11 20:47:00,
2013-02-11 15:52:00,32.9,30.6,29.75,WSW,255,0.0,1.0,91,0.00,RA,RA,0.22,30.0,WeatherDisplay:10.37,2013-02-11 20:52:00,
2013-02-11 15:57:00,32.9,30.6,29.75,WSW,255,0.0,0.0,91,0.00,,,0.22,0.0,WeatherDisplay:10.37,2013-02-11 20:57:00,
2013-02-11 16:02:00,32.9,30.8,29.75,West,262,0.0,0.0,92,0.00,,,0.22,0.0,WeatherDisplay:10.37,2013-02-11 21:02:00,
2013-02-11 16:07:00,32.9,30.9,29.75,West,275,0.0,0.0,92,0.00,,,0.22,51.0,WeatherDisplay:10.37,2013-02-11 21:07:00,
2013-02-11 16:12:00,33.0,30.9,29.74,West,280,0.0,0.0,92,0.00,,,0.22,26.0,WeatherDisplay:10.37,2013-02-11 21:12:00,
2013-02-11 16:22:00,32.9,30.9,29.73,West,280,0.0,0.0,92,0.00,,,0.22,0.0,WeatherDisplay:10.37,2013-02-11 21:22:00,
2013-02-11 16:27:00,32.9,30.8,29.73,West,280,0.0,0.0,92,0.00,,,0.22,0.0,WeatherDisplay:10.37,2013-02-11 21:27:00,
2013-02-11 16:32:00,32.8,30.7,29.72,West,279,0.0,0.0,92,0.00,,,0.22,16.0,WeatherDisplay:10.37,2013-02-11 21:32:00,
2013-02-11 16:42:00,32.8,30.7,29.71,West,280,0.0,0.0,92,0.00,,,0.22,11.0,WeatherDisplay:10.37,2013-02-11 21:42:00,
2013-02-11 16:57:00,32.8,30.7,29.70,West,280,0.0,0.0,92,0.00,CLR,CLR,0.22,0.0,WeatherDisplay:10.37,2013-02-11 21:57:00,
2013-02-11 17:02:00,32.8,30.7,29.70,West,280,0.0,0.0,92,0.00,CLR,CLR,0.22,0.0,WeatherDisplay:10.37,2013-02-11 22:02:00,
2013-02-11 17:07:00,32.8,30.7,29.70,West,280,0.0,0.0,92,0.00,CLR,CLR,0.22,0.0,WeatherDisplay:10.37,2013-02-11 22:07:00,
2013-02-11 17:12:00,32.8,30.7,29.70,West,280,0.0,0.0,92,0.00,CLR,CLR,0.22,0.0,WeatherDisplay:10.37,2013-02-11 22:12:00,
2013-02-11 17:17:00,32.8,30.7,29.70,West,280,0.0,0.0,92,0.00,CLR,CLR,0.22,0.0,WeatherDisplay:10.37,2013-02-11 22:17:00,
2013-02-11 17:22:00,32.8,30.7,29.70,West,280,0.0,0.0,92,0.00,CLR,CLR,0.22,0.0,WeatherDisplay:10.37,2013-02-11 22:22:00,
2013-02-11 17:27:00,32.8,30.7,29.70,West,280,0.0,0.0,92,0.00,CLR,CLR,0.22,0.0,WeatherDisplay:10.37,2013-02-11 22:27:00,
2013-02-11 17:32:00,32.8,30.7,29.69,West,280,0.0,0.0,92,0.00,CLR,CLR,0.22,0.0,WeatherDisplay:10.37,2013-02-11 22:32:00,
2013-02-11 17:37:00,32.7,30.6,29.69,West,280,0.0,0.0,92,0.00,CLR,CLR,0.22,0.0,WeatherDisplay:10.37,2013-02-11 22:37:00,
2013-02-11 17:42:00,32.7,30.6,29.69,West,280,0.0,0.0,92,0.00,CLR,CLR,0.22,0.0,WeatherDisplay:10.37,2013-02-11 22:42:00,
2013-02-11 17:47:00,32.6,30.5,29.68,West,280,0.0,0.0,92,0.00,CLR,CLR,0.22,0.0,WeatherDisplay:10.37,2013-02-11 22:47:00,
2013-02-11 17:52:00,32.6,30.5,29.68,West,280,0.0,0.0,92,0.00,CLR,CLR,0.22,0.0,WeatherDisplay:10.37,2013-02-11 22:52:00,
2013-02-11 17:57:00,32.6,30.5,29.69,West,280,0.0,0.0,92,0.00,CLR,CLR,0.22,0.0,WeatherDisplay:10.37,2013-02-11 22:57:00,
2013-02-11 18:02:00,32.6,30.5,29.69,West,280,0.0,0.0,92,0.00,CLR,CLR,0.22,0.0,WeatherDisplay:10.37,2013-02-11 23:02:00,
2013-02-11 18:07:00,32.6,30.5,29.69,West,279,0.0,1.0,92,0.00,CLR,CLR,0.22,0.0,WeatherDisplay:10.37,2013-02-11 23:07:00,
2013-02-11 18:22:00,32.6,30.5,29.68,West,280,0.0,0.0,92,0.00,CLR,CLR,0.22,0.0,WeatherDisplay:10.37,2013-02-11 23:22:00,
2013-02-11 18:27:00,32.6,30.5,29.68,West,280,0.0,0.0,92,0.00,CLR,CLR,0.22,0.0,WeatherDisplay:10.37,2013-02-11 23:27:00,
2013-02-11 18:32:00,32.6,30.5,29.68,West,280,0.0,0.0,92,0.00,CLR,CLR,0.22,0.0,WeatherDisplay:10.37,2013-02-11 23:32:00,
2013-02-11 18:37:00,32.6,30.5,29.68,West,280,0.0,0.0,92,0.00,CLR,CLR,0.22,0.0,WeatherDisplay:10.37,2013-02-11 23:37:00,
2013-02-11 18:42:00,32.6,30.5,29.67,West,280,0.0,0.0,92,0.00,CLR,CLR,0.22,0.0,WeatherDisplay:10.37,2013-02-11 23:42:00,
2013-02-11 18:47:00,32.6,30.5,29.67,West,280,0.0,0.0,92,0.00,CLR,CLR,0.22,0.0,WeatherDisplay:10.37,2013-02-11 23:47:00,
2013-02-11 18:52:00,32.6,30.5,29.68,West,280,0.0,0.0,92,0.00,CLR,CLR,0.22,0.0,WeatherDisplay:10.37,2013-02-11 23:52:00,
2013-02-11 18:57:00,32.6,30.8,29.67,West,280,0.0,0.0,93,0.00,CLR,CLR,0.22,0.0,WeatherDisplay:10.37,2013-02-11 23:57:00,
2013-02-11 19:02:00,32.6,30.8,29.67,West,279,0.0,0.0,93,0.00,CLR,CLR,0.22,0.0,WeatherDisplay:10.37,2013-02-12 00:02:00,
2013-02-11 19:07:00,32.6,30.8,29.67,West,279,0.0,0.0,93,0.00,CLR,CLR,0.22,0.0,WeatherDisplay:10.37,2013-02-12 00:07:00,
2013-02-11 19:12:00,32.6,30.8,29.67,West,280,0.0,0.0,93,0.00,CLR,CLR,0.22,0.0,WeatherDisplay:10.37,2013-02-12 00:12:00,
2013-02-11 19:17:00,32.6,30.8,29.67,West,280,0.0,0.0,93,0.00,CLR,CLR,0.22,0.0,WeatherDisplay:10.37,2013-02-12 00:17:00,
2013-02-11 19:22:00,32.6,30.8,29.67,West,280,0.0,0.0,93,0.00,CLR,CLR,0.22,0.0,WeatherDisplay:10.37,2013-02-12 00:22:00,
2013-02-11 19:27:00,32.6,30.8,29.67,West,280,0.0,0.0,93,0.00,CLR,CLR,0.22,0.0,WeatherDisplay:10.37,2013-02-12 00:27:00,
2013-02-11 19:32:00,32.6,30.8,29.66,West,280,0.0,0.0,93,0.00,CLR,CLR,0.22,0.0,WeatherDisplay:10.37,2013-02-12 00:32:00,
2013-02-11 19:37:00,32.6,30.8,29.65,West,279,0.0,0.0,93,0.00,CLR,CLR,0.22,0.0,WeatherDisplay:10.37,2013-02-12 00:37:00,
2013-02-11 19:42:00,32.6,30.8,29.65,West,280,0.0,0.0,93,0.00,CLR,CLR,0.22,0.0,WeatherDisplay:10.37,2013-02-12 00:42:00,
2013-02-11 19:47:00,32.6,30.8,29.65,West,280,0.0,0.0,93,0.00,CLR,CLR,0.22,0.0,WeatherDisplay:10.37,2013-02-12 00:47:00,
2013-02-11 19:57:00,32.6,30.8,29.64,West,280,0.0,0.0,93,0.00,CLR,CLR,0.22,0.0,WeatherDisplay:10.37,2013-02-12 00:57:00,
2013-02-11 20:02:00,32.6,30.8,29.64,West,280,0.0,0.0,93,0.00,CLR,CLR,0.22,0.0,WeatherDisplay:10.37,2013-02-12 01:02:00,
2013-02-11 20:07:00,32.6,30.8,29.64,West,280,0.0,0.0,93,0.00,CLR,CLR,0.22,0.0,WeatherDisplay:10.37,2013-02-12 01:07:00,
2013-02-11 20:12:00,32.6,30.8,29.64,West,280,0.0,0.0,93,0.00,CLR,CLR,0.22,0.0,WeatherDisplay:10.37,2013-02-12 01:12:00,
2013-02-11 20:17:00,32.6,30.8,29.64,West,280,0.0,0.0,93,0.00,CLR,CLR,0.22,0.0,WeatherDisplay:10.37,2013-02-12 01:17:00,
2013-02-11 20:27:00,32.6,30.8,29.63,West,280,0.0,0.0,93,0.00,CLR,CLR,0.22,0.0,WeatherDisplay:10.37,2013-02-12 01:27:00,
2013-02-11 20:32:00,32.6,30.8,29.63,West,280,0.0,0.0,93,0.00,CLR,CLR,0.22,0.0,WeatherDisplay:10.37,2013-02-12 01:32:00,
2013-02-11 20:37:00,32.6,30.8,29.63,West,280,0.0,0.0,93,0.00,CLR,CLR,0.22,0.0,WeatherDisplay:10.37,2013-02-12 01:37:00,
2013-02-11 20:42:00,32.6,30.8,29.63,West,280,0.0,0.0,93,0.00,CLR,CLR,0.22,0.0,WeatherDisplay:10.37,2013-02-12 01:42:00,
2013-02-11 20:47:00,32.6,30.8,29.62,West,279,0.0,0.0,93,0.00,CLR,CLR,0.22,0.0,WeatherDisplay:10.37,2013-02-12 01:47:00,
2013-02-11 20:52:00,32.6,30.8,29.62,West,280,0.0,0.0,93,0.00,CLR,CLR,0.22,0.0,WeatherDisplay:10.37,2013-02-12 01:52:00,
2013-02-11 21:02:00,32.5,30.7,29.62,West,280,0.0,0.0,93,0.00,OVC,OVC,0.22,0.0,WeatherDisplay:10.37,2013-02-12 02:02:00,
2013-02-11 21:07:00,32.5,30.7,29.62,West,280,0.0,0.0,93,0.00,OVC,OVC,0.22,0.0,WeatherDisplay:10.37,2013-02-12 02:07:00,
2013-02-11 21:12:00,32.5,30.7,29.62,West,280,0.0,0.0,93,0.00,OVC,OVC,0.22,0.0,WeatherDisplay:10.37,2013-02-12 02:12:00,
2013-02-11 21:17:00,32.5,30.7,29.62,West,280,0.0,0.0,93,0.00,OVC,OVC,0.22,0.0,WeatherDisplay:10.37,2013-02-12 02:17:00,
2013-02-11 21:22:00,32.5,30.7,29.62,West,280,0.0,0.0,93,0.00,OVC,OVC,0.22,0.0,WeatherDisplay:10.37,2013-02-12 02:22:00,
2013-02-11 21:27:00,32.5,30.7,29.63,West,279,0.0,2.0,93,0.00,OVC,OVC,0.22,0.0,WeatherDisplay:10.37,2013-02-12 02:27:00,
2013-02-11 21:32:00,32.5,30.7,29.63,West,279,0.0,0.0,93,0.00,OVC,OVC,0.22,0.0,WeatherDisplay:10.37,2013-02-12 02:32:00,
2013-02-11 21:37:00,32.5,30.7,29.63,West,280,0.0,0.0,93,0.00,OVC,OVC,0.22,0.0,WeatherDisplay:10.37,2013-02-12 02:37:00,
2013-02-11 21:42:00,32.5,30.7,29.63,West,280,0.0,0.0,93,0.00,OVC,OVC,0.22,0.0,WeatherDisplay:10.37,2013-02-12 02:42:00,
2013-02-11 21:47:00,32.4,30.6,29.63,West,279,0.0,0.0,93,0.00,OVC,OVC,0.22,0.0,WeatherDisplay:10.37,2013-02-12 02:47:00,
2013-02-11 21:52:00,32.4,30.6,29.63,West,280,0.0,2.0,93,0.00,OVC,OVC,0.22,0.0,WeatherDisplay:10.37,2013-02-12 02:52:00,
2013-02-11 21:57:00,32.4,30.6,29.63,West,280,0.0,0.0,93,0.00,OVC,OVC,0.22,0.0,WeatherDisplay:10.37,2013-02-12 02:57:00,
2013-02-11 22:02:00,32.4,30.6,29.63,West,279,0.0,0.0,93,0.00,OVC,OVC,0.22,0.0,WeatherDisplay:10.37,2013-02-12 03:02:00,
2013-02-11 22:07:00,32.4,30.6,29.62,West,279,0.0,0.0,93,0.00,OVC,OVC,0.22,0.0,WeatherDisplay:10.37,2013-02-12 03:07:00,
2013-02-11 22:12:00,32.3,30.5,29.61,West,280,0.0,0.0,93,0.00,OVC,OVC,0.22,0.0,WeatherDisplay:10.37,2013-02-12 03:12:00,
2013-02-11 22:22:00,32.3,30.5,29.61,West,279,0.0,0.0,93,0.00,OVC,OVC,0.22,0.0,WeatherDisplay:10.37,2013-02-12 03:22:00,
2013-02-11 22:27:00,32.3,30.5,29.60,West,279,0.0,0.0,93,0.00,OVC,OVC,0.22,0.0,WeatherDisplay:10.37,2013-02-12 03:27:00,
2013-02-11 22:32:00,32.3,30.5,29.60,West,279,0.0,0.0,93,0.00,OVC,OVC,0.22,0.0,WeatherDisplay:10.37,2013-02-12 03:32:00,
2013-02-11 22:37:00,32.3,30.5,29.60,West,279,0.0,0.0,93,0.00,OVC,OVC,0.22,0.0,WeatherDisplay:10.37,2013-02-12 03:37:00,
2013-02-11 22:42:00,32.4,30.6,29.61,West,279,0.0,0.0,93,0.00,OVC,OVC,0.22,0.0,WeatherDisplay:10.37,2013-02-12 03:42:00,
2013-02-11 22:47:00,32.4,30.6,29.60,West,280,0.0,0.0,93,0.00,OVC,OVC,0.22,0.0,WeatherDisplay:10.37,2013-02-12 03:47:00,
2013-02-11 22:52:00,32.4,30.6,29.60,West,280,0.0,0.0,93,0.00,OVC,OVC,0.22,0.0,WeatherDisplay:10.37,2013-02-12 03:52:00,
2013-02-11 22:57:00,32.4,30.6,29.61,West,279,0.0,0.0,93,0.00,OVC,OVC,0.22,0.0,WeatherDisplay:10.37,2013-02-12 03:57:00,
2013-02-11 23:02:00,32.5,30.7,29.60,West,280,0.0,0.0,93,0.00,OVC,OVC,0.00,0.0,WeatherDisplay:10.37,2013-02-12 04:02:00,
2013-02-11 23:07:00,32.5,30.7,29.60,West,280,0.0,0.0,93,0.00,OVC,OVC,0.00,0.0,WeatherDisplay:10.37,2013-02-12 04:07:00,
2013-02-11 23:12:00,32.5,30.7,29.61,West,279,0.0,0.0,93,0.00,OVC,OVC,0.00,0.0,WeatherDisplay:10.37,2013-02-12 04:12:00,
2013-02-11 23:17:00,32.5,30.7,29.61,West,279,0.0,0.0,93,0.00,OVC,OVC,0.00,0.0,WeatherDisplay:10.37,2013-02-12 04:17:00,
2013-02-11 23:22:00,32.5,30.7,29.61,West,279,0.0,0.0,93,0.00,OVC,OVC,0.00,0.0,WeatherDisplay:10.37,2013-02-12 04:22:00,
2013-02-11 23:27:00,32.5,30.7,29.61,West,280,0.0,0.0,93,0.00,OVC,OVC,0.00,0.0,WeatherDisplay:10.37,2013-02-12 04:27:00,
2013-02-11 23:32:00,32.5,30.7,29.61,West,280,0.0,0.0,93,0.00,OVC,OVC,0.00,0.0,WeatherDisplay:10.37,2013-02-12 04:32:00,
2013-02-11 23:37:00,32.5,30.7,29.61,West,280,0.0,0.0,93,0.00,OVC,OVC,0.00,0.0,WeatherDisplay:10.37,2013-02-12 04:37:00,
2013-02-11 23:42:00,32.5,30.7,29.61,West,280,0.0,1.0,93,0.00,OVC,OVC,0.00,0.0,WeatherDisplay:10.37,2013-02-12 04:42:00,
2013-02-11 23:47:00,32.5,30.7,29.61,West,280,0.0,0.0,93,0.00,OVC,OVC,0.00,0.0,WeatherDisplay:10.37,2013-02-12 04:47:00,
2013-02-11 23:52:00,32.5,30.7,29.61,West,279,0.0,0.0,93,0.00,OVC,OVC,0.00,0.0,WeatherDisplay:10.37,2013-02-12 04:52:00,
2013-02-11 23:57:00,32.5,30.7,29.61,West,279,0.0,0.0,93,0.00,OVC,OVC,0.00,0.0,WeatherDisplay:10.37,2013-02-12 04:57:00,